Regional Weather Roundup
Issued by NWS

Home | Current Version | Previous Version | Graphics & Text | Print | Product List | Glossary On
Versions: 1 2 3 4 5 6 7 8 9 10 11 12 13 14 15 16 17 18 19 20 21 22 23 24 25 26 27 28 29 30 31 32 33 34 35 36 37 38 39 40 41 42 43 44 45 46 47 48 49 50
000
ASUS45 KTFX 221419
RWRMT
MONTANA HOURLY WEATHER ROUNDUP
NATIONAL WEATHER SERVICE GREAT FALLS MT
819 AM MDT MON SEP 22 2014

NOTE: "FAIR" INDICATES FEW OR NO CLOUDS BELOW 12000 FEET WITH NO
SIGNIFICANT WEATHER AND/OR OBSTRUCTIONS TO VISIBILITY.

* THESE STATIONS ARE NOT UNDER NWS QUALITY CONTROL. THEY DO NOT
   REPORT WEATHER SUCH AS PRECIPITATION OR FOG.

MTZ001>007-043-221500-
WEST OF THE DIVIDE
CITY           SKY/WX    TMP DP  RH WIND       PRES   REMARKS
KALISPELL      SUNNY     45  39  80 W3        29.96S
MISSOULA       PTCLDY    46  41  83 CALM      30.01R
BUTTE          CLOUDY    52  43  72 E5        30.12S
MULLAN PASS    PTCLDY    59  39  48 NW6       30.09F
* ESSEX        N/A       44  40  86 NE1        N/A
* LINCOLN      N/A       35  34  96 N/A        N/A
* POLSON       N/A       52  41  66 N/A        N/A
* RONAN APT    PTCLDY    45  39  80 N/A        N/A
* SEELEY LAKE  N/A       37  33  85 N/A        N/A
* THOMP F APT  PTCLDY    51  50  96 SE1G7      N/A
$$

MTZ008-052>055-221500-
SOUTHWEST MONTANA
CITY           SKY/WX    TMP DP  RH WIND       PRES   REMARKS
BOZEMAN        CLOUDY    54  50  86 CALM      30.08S
DILLON         CLOUDY    55  52  90 S6        30.11F
W YELLOWSTONE  PTSUNNY   50  48  93 S7        30.21S
* THREE FORKS  CLOUDY    55  36  49 N/A        N/A
* BOULDER HILL N/A       52  38  59 SW11       N/A
* MONIDA PASS  N/A       49  49 100 SE8        N/A
* WHITEHALL    N/A       58  49  72 W6G12      N/A
* WISE RIVER   N/A       42  37  83 W3         N/A
$$

MTZ009>010-012-014-046-048-049-054-221500-
EAST SLOPES AND CENTRAL MONTANA
CITY           SKY/WX    TMP DP  RH WIND       PRES   REMARKS
CUT BANK       SUNNY     43  39  86 W5        29.93S
GREAT FALLS    PTCLDY    61  45  56 S12       29.93F
HELENA         CLOUDY    52  45  77 CALM      30.04R
MALMSTROM AFB  PTCLDY    52  45  77 S3        29.95S
* CONRAD       PTCLDY    39  39 100 N/A        N/A
* EAST GLACIER N/A       61  39  44 W8G13      N/A
* MONARCH      N/A       50  38  64 S3G8       N/A
* PENDROY      N/A       54  43  67 SW3        N/A
* ROGERS PASS  N/A       56  42  60 W6G12      N/A
* SAINT MARY   N/A       45  41  86 S4         N/A
* SWEET GRASS  N/A       50  46  86 SW11       N/A
* WHITE SULPH  N/A       54  45  72 SW3G10     N/A
$$

MTZ011-013-016-021-035-040-045-047-050-051-221500-
NORTH CENTRAL MONTANA
CITY           SKY/WX    TMP DP  RH WIND       PRES   REMARKS
HAVRE          SUNNY     43  43 100 CALM      29.91S
LEWISTOWN      PTSUNNY   52  43  72 N/A       29.97F
* CHINOOK      SUNNY     50  43  77 E6        29.91S
* FORT BENTON  PTCLDY    50  46  86 CALM      29.93S
* CHESTER      N/A       42  38  86 E1         N/A
* DENTON       N/A       48  44  86 N/A        N/A
* GEYSER       N/A       49  42  77 SW9        N/A
* JUDITH GAP   N/A       53  45  74 SE9        N/A
* LOMA         N/A       45  42  89 SW3        N/A
$$

MTZ017>020-022>027-061-062-221500-
NORTHEAST MONTANA
CITY           SKY/WX    TMP DP  RH WIND       PRES   REMARKS
GLASGOW        SUNNY     52  36  55 E15       29.95F
JORDAN         SUNNY     50  41  71 CALM      29.95F
SIDNEY         SUNNY     48  39  71 CALM      30.03F
WOLF POINT     SUNNY     46  37  71 E7        29.99F
* BEAVER HILL  N/A       57  40  53 SE9G15     N/A
* CIRCLE       N/A       54  41  62 E2         N/A
* LINDSAY DVD  N/A       49  38  66 E6         N/A
$$

MTZ028>042-056>058-221500-
SOUTHCENTRAL AND SOUTHEAST MONTANA
CITY           SKY/WX    TMP DP  RH WIND       PRES   REMARKS
BAKER          SUNNY     52  37  57 SE12      30.03F
BILLINGS       CLOUDY    55  45  69 SW14      29.98F
LIVINGSTON     CLOUDY    63  48  58 SW24G31   30.04F
MILES CITY     PTCLDY    55  39  55 SE6       29.97F
* LAUREL APT   CLOUDY    55  45  69 S6         N/A
* ROUNDUP APT  CLOUDY    50  43  77 S10        N/A
* ALZADA       N/A       48  40  74 E1         N/A
* HYSHAM       N/A       58  41  53 W2         N/A
* LAME DEER    N/A       55  41  59 S8         N/A
* REED POINT   N/A       53  48  83 N/A        N/A
* ROSCOE HILL  N/A       60  42  52 SW5G12     N/A
$$

REGIONAL REPORTS...DAKOTAS
CITY           SKY/WX    TMP DP  RH WIND       PRES   REMARKS
WILLISTON      SUNNY     50  39  66 N3        30.04F
DICKINSON      SUNNY     52  41  66 S13       30.04F
BEACH          HAZE      52  39  61 SE3       30.04F VSB 1 3/4
CROSBY         SUNNY     50  43  77 S9        30.04F
TIOGA          SUNNY     45  45 100 E5        30.09F
WATFORD CITY   SUNNY     50  39  66 SE9       30.02F
BISMARCK       SUNNY     52  46  80 E7        30.13F
GRAND FORKS    SUNNY     54  48  80 S3        30.13F
FARGO          SUNNY     52  46  80 S7        30.18F
BUFFALO SD     PTCLDY    54  39  57 SE6       29.99F
RAPID CITY     CLOUDY    54  41  62 SE8       30.09F
$$

REGIONAL REPORTS...WYOMING/IDAHO/WASHINGTON
CITY           SKY/WX    TMP DP  RH WIND       PRES   REMARKS
GILLETTE       PTSUNNY   55  41  59 S16G26    30.04F
SHERIDAN       PTSUNNY   55  46  72 CALM      30.00S
CODY           PTSUNNY  N/A N/A N/A N/A        N/A
YELLOWSTONE LA PTSUNNY   46  45  96 CALM      30.29S
SALMON         CLOUDY    59  52  78 CALM      30.07S
MULLAN PASS    PTCLDY    59  39  48 NW6       30.09S
SAND POINT     PTCLDY    45  45 100 CALM      29.94R
SPOKANE        PTSUNNY   61  45  56 SE6       29.92S
$$

REGIONAL REPORTS...ALBERTA
CITY           SKY/WX    TMP DP  RH WIND       PRES   REMARKS
CALGARY        SUNNY     52  39  61 S5        29.87R
LETHBRIDGE     SUNNY     48  41  77 SW8       29.86S
MEDICINE HAT   SUNNY     54  46  74 W3        29.83F
EDMONTON       SUNNY     50  41  71 S3        29.76S
WATERTON GATE  N/A       61  41  48 S10        N/A
CARDSTON       N/A       55  43  64 SW6        N/A
MILK RIVER     N/A       43  39  86 NW2        N/A
$$

REGIONAL REPORTS...SASKATCHEWAN
CITY           SKY/WX    TMP DP  RH WIND       PRES   REMARKS
SWIFT CURRENT  SUNNY     54  39  57 S8        29.92S
MOOSE JAW      N/A       46  41  83 SE8       29.96F
REGINA         N/A       46  39  77 SE9       30.00S
VAL MARIE      N/A       48  43  83 N2         N/A
ASSINIBOIA     N/A       50  39  66 SE8        N/A
CORONACH       N/A       48  43  83 SE3        N/A

$$



USA.gov is the U.S. government's official web portal to all federal, state and local government web resources and services.